FW9113 Weather Reports


time (UTC)temp
C
wind
direction
speed
KPH
gust
KPH
rain 1hr
cm
rain 24hr
cm
rain mn
cm
humidity
%
barometer
mb
20260502200220 20 225 4.8 12.9 0.00 0.00 0.00 72 1014.4
20260502195719 20 221 3.2 8.0 0.00 0.00 0.00 70 1014.1
20260502195219 20 279 3.2 8.0 0.00 0.00 0.00 70 1013.9
20260502194718 20 116 1.6 6.4 0.00 0.00 0.00 70 1013.7
20260502194515 20 149 1.6 4.8 0.00 0.00 0.00 70 1013.7
20260502193718 20 139 0.0 4.8 0.00 0.00 0.00 69 1013.6
20260502193215 20 325 0.0 0.0 0.00 0.00 0.00 69 1013.6
20260502192713 21 325 0.0 0.0 0.00 0.00 0.00 69 1013.5
20260502192212 21 325 0.0 0.0 0.00 0.00 0.00 69 1013.5
20260502192008 21 325 0.0 0.0 0.00 0.00 0.00 68 1013.5
20260502191506 21 325 0.0 3.2 0.00 0.00 0.00 66 1013.4
20260502190704 21 325 0.0 3.2 0.00 0.00 0.00 66 1013.4
20260502190204 21 282 0.0 0.0 0.00 0.00 0.00 67 1013.3
20260502185702 21 282 0.0 0.0 0.00 0.00 0.00 66 1013.3
20260502185203 21 282 0.0 0.0 0.00 0.00 0.00 66 1013.2
20260502184703 22 282 0.0 0.0 0.00 0.00 0.00 66 1013.3
20260502184202 22 282 0.0 0.0 0.00 0.00 0.00 65 1013.3
20260502183701 22 282 0.0 0.0 0.00 0.00 0.00 65 1013.2
20260502183155 22 282 0.0 1.6 0.00 0.00 0.00 65 1013.3
20260502182649 22 282 0.0 1.6 0.00 0.00 0.00 65 1013.3
20260502182143 22 281 0.0 0.0 0.00 0.00 0.00 65 1013.2
20260502181709 22 282 0.0 0.0 0.00 0.00 0.00 65 1013.3
20260502181142 22 282 0.0 0.0 0.00 0.00 0.00 64 1013.3
20260502180639 22 282 0.0 0.0 0.00 0.00 0.00 64 1013.3
20260502180137 22 282 0.0 0.0 0.00 0.00 0.00 64 1013.2
20260502170130 23 209 0.0 3.2 0.00 0.00 0.00 59 1013.5
20260502164129 23 221 1.6 3.2 0.00 0.00 0.00 58 1013.8
20260502163625 23 339 1.6 4.8 0.00 0.00 0.00 59 1013.9
20260502163125 23 321 1.6 6.4 0.00 0.00 0.00 59 1014.0
20260502162628 23 314 1.6 6.4 0.00 0.00 0.00 59 1014.1
20260502162421 23 153 3.2 6.4 0.00 0.00 0.00 58 1014.1
20260502161626 23 232 1.6 6.4 0.00 0.00 0.00 58 1014.2
20260502161417 24 266 1.6 4.8 0.00 0.00 0.00 58 1014.3
20260502160625 24 221 1.6 4.8 0.00 0.00 0.00 59 1014.3
20260502160417 24 332 1.6 4.8 0.00 0.00 0.00 58 1014.4
20260502152119 24 294 1.6 6.4 0.00 0.00 0.00 57 1014.9
20260502151617 24 234 1.6 4.8 0.00 0.00 0.00 58 1014.9
20260502151118 24 300 3.2 6.4 0.00 0.00 0.00 58 1015.0
20260502150619 24 248 3.2 6.4 0.00 0.00 0.00 58 1015.0
20260502150120 24 205 1.6 6.4 0.00 0.00 0.00 58 1015.1
20260502140112 24 298 3.2 9.7 0.00 0.00 0.00 58 1015.7
20260502130547 24 328 3.2 4.8 0.00 0.00 0.00 58 1016.2
20260502123544 23 151 3.2 6.4 0.00 0.00 0.00 60 1016.5
20260502123040 23 232 3.2 6.4 0.00 0.00 0.00 60 1016.5
20260502122538 22 218 3.2 8.0 0.00 0.00 0.00 61 1016.6
20260502122039 22 235 4.8 8.0 0.00 0.00 0.00 61 1016.6
20260502121539 23 227 3.2 6.4 0.00 0.00 0.00 59 1016.7
20260502121038 23 210 3.2 8.0 0.00 0.00 0.00 59 1016.6
20260502120538 23 243 4.8 9.7 0.00 0.00 0.00 60 1016.7
20260502115537 23 212 3.2 9.7 0.00 0.00 0.00 58 1016.8
20260502115036 23 299 3.2 8.0 0.00 0.00 0.00 58 1016.8
20260502114537 23 243 3.2 6.4 0.00 0.00 0.00 58 1016.9
20260502114033 23 215 3.2 6.4 0.00 0.00 0.00 59 1016.9
20260502113532 23 114 3.2 9.7 0.00 0.00 0.00 57 1017.0
20260502113030 23 174 3.2 9.7 0.00 0.00 0.00 58 1017.0
20260502112531 23 229 1.6 8.0 0.00 0.00 0.00 57 1017.0
20260502112030 23 199 1.6 8.0 0.00 0.00 0.00 56 1017.1
20260502111832 23 329 4.8 9.7 0.00 0.00 0.00 58 1017.2
20260502111031 22 215 4.8 11.3 0.00 0.00 0.00 60 1017.2
20260502110532 22 230 1.6 11.3 0.00 0.00 0.00 58 1017.3
20260502110032 22 216 0.0 0.0 0.00 0.00 0.00 59 1017.3
20260502105826 22 236 0.0 0.0 0.00 0.00 0.00 59 1017.3
20260502105031 22 224 0.0 0.0 0.00 0.00 0.00 59 1017.3
20260502104530 22 202 0.0 0.0 0.00 0.00 0.00 57 1017.3
20260502104334 22 229 0.0 0.0 0.00 0.00 0.00 58 1017.3
20260502103530 21 239 0.0 0.0 0.00 0.00 0.00 57 1017.4
20260502103032 22 226 0.0 0.0 0.00 0.00 0.00 56 1017.4
20260502102532 22 238 0.0 0.0 0.00 0.00 0.00 55 1017.4
20260502102030 22 221 0.0 0.0 0.00 0.00 0.00 55 1017.5
20260502101528 22 217 0.0 0.0 0.00 0.00 0.00 56 1017.6
20260502101329 21 201 0.0 0.0 0.00 0.00 0.00 54 1017.6
20260502100526 21 223 0.0 0.0 0.00 0.00 0.00 54 1017.7
20260502091524 19 223 0.0 0.0 0.00 0.00 0.00 57 1018.0
20260502091024 19 193 0.0 0.0 0.00 0.00 0.00 56 1018.0
20260502090520 19 143 0.0 0.0 0.00 0.00 0.00 58 1018.1
20260502090312 18 226 0.0 0.0 0.00 0.00 0.00 58 1018.0
20260502071506 15 201 0.0 0.0 0.00 0.00 0.00 64 1018.2
20260502071009 15 232 0.0 0.0 0.00 0.00 0.00 65 1018.2
20260502070505 15 219 0.0 0.0 0.00 0.00 0.00 65 1018.2
20260502070307 15 213 0.0 0.0 0.00 0.00 0.00 64 1018.3
20260502065505 15 223 0.0 0.0 0.00 0.00 0.00 63 1018.2
20260502065008 15 232 0.0 0.0 0.00 0.00 0.00 63 1018.2
20260502064823 15 245 0.0 0.0 0.00 0.00 0.00 64 1018.1
20260502064008 15 226 0.0 0.0 0.00 0.00 0.00 64 1018.1
20260502063501 15 223 0.0 0.0 0.00 0.00 0.00 64 1018.2
20260502062955 14 234 0.0 0.0 0.00 0.00 0.00 67 1018.2
20260502062752 14 219 0.0 0.0 0.00 0.00 0.00 67 1018.3
20260502062245 13 132 0.0 0.0 0.00 0.00 0.00 68 1018.3
20260502061746 13 194 0.0 0.0 0.00 0.00 0.00 69 1018.3
20260502060944 13 123 0.0 0.0 0.00 0.00 0.00 69 1018.3
20260502060443 13 209 0.0 0.0 0.00 0.00 0.00 70 1018.4
20260502055943 13 138 0.0 0.0 0.00 0.00 0.00 72 1018.2
20260502055443 12 138 0.0 0.0 0.00 0.00 0.00 75 1018.2
20260502054940 12 138 0.0 0.0 0.00 0.00 0.00 78 1018.4
20260502054743 11 138 0.0 0.0 0.00 0.00 0.00 82 1018.2
20260502054244 10 138 0.0 0.0 0.00 0.00 0.00 85 1018.1
20260502053437 10 138 0.0 0.0 0.00 0.00 0.00 86 1018.1
20260502052932 10 138 0.0 0.0 0.00 0.00 0.00 88 1018.2
20260502052434 9 138 0.0 0.0 0.00 0.00 0.00 87 1018.1
20260502051932 8 138 0.0 0.0 0.00 0.00 0.00 87 1018.2
20260502051431 8 138 0.0 0.0 0.00 0.00 0.00 87 1018.1
20260502050931 8 138 0.0 0.0 0.00 0.00 0.00 87 1018.1
20260502050433 8 138 0.0 0.0 0.00 0.00 0.00 86 1018.1
20260502045931 8 138 0.0 0.0 0.00 0.00 0.00 86 1018.1
20260502045430 8 138 0.0 0.0 0.00 0.00 0.00 86 1018.2
20260502044928 8 138 0.0 0.0 0.00 0.00 0.00 86 1018.2
20260502044425 8 138 0.0 0.0 0.00 0.00 0.00 86 1018.1
20260502043920 8 138 0.0 0.0 0.00 0.00 0.00 86 1018.3
20260502043413 8 138 0.0 0.0 0.00 0.00 0.00 86 1018.2
20260502042905 8 138 0.0 0.0 0.00 0.00 0.00 85 1018.3
20260502042359 8 138 0.0 0.0 0.00 0.00 0.00 85 1018.3
20260502041853 8 138 0.0 0.0 0.00 0.00 0.00 85 1018.4
20260502041352 8 138 0.0 0.0 0.00 0.00 0.00 84 1018.4
20260502040852 8 138 0.0 0.0 0.00 0.00 0.00 84 1018.4
20260502040658 8 138 0.0 0.0 0.00 0.00 0.00 84 1018.3
20260502035849 8 138 0.0 0.0 0.00 0.00 0.00 84 1018.3
20260502035345 8 138 0.0 0.0 0.00 0.00 0.00 83 1018.4
20260502034846 8 138 0.0 0.0 0.00 0.00 0.00 82 1018.3
20260502034345 8 138 0.0 0.0 0.00 0.00 0.00 82 1018.4
20260502033844 8 138 0.0 0.0 0.00 0.00 0.00 82 1018.5
20260502033341 8 138 0.0 0.0 0.00 0.00 0.00 81 1018.6
20260502032840 8 138 0.0 0.0 0.00 0.00 0.00 81 1018.6
20260502032338 8 138 0.0 0.0 0.00 0.00 0.00 81 1018.7
20260502031837 8 138 0.0 0.0 0.00 0.00 0.00 81 1018.7
20260502031338 8 138 0.0 0.0 0.00 0.00 0.00 80 1018.7
20260502030836 8 138 0.0 0.0 0.00 0.00 0.00 80 1018.8
20260502030334 9 138 0.0 0.0 0.00 0.00 0.00 79 1018.8
20260502025831 9 138 0.0 0.0 0.00 0.00 0.00 79 1018.8
20260502025332 9 138 0.0 0.0 0.00 0.00 0.00 79 1018.9
20260502024829 9 138 0.0 0.0 0.00 0.00 0.00 79 1018.9
20260502024330 9 138 0.0 0.0 0.00 0.00 0.00 78 1019.0
20260502023823 9 138 0.0 0.0 0.00 0.00 0.00 78 1019.0
20260502023315 10 138 0.0 0.0 0.00 0.00 0.00 78 1019.0
20260502023121 10 138 0.0 0.0 0.00 0.00 0.00 78 1019.0
20260502022315 10 138 0.0 0.0 0.00 0.00 0.00 78 1019.0
20260502021816 10 138 0.0 0.0 0.00 0.00 0.00 77 1019.0
20260502021313 10 138 0.0 0.0 0.00 0.00 0.00 77 1019.0
20260502020815 10 138 0.0 0.0 0.00 0.00 0.00 76 1019.0
20260502020313 10 138 0.0 0.0 0.00 0.00 0.00 75 1019.1
20260502020121 10 138 0.0 0.0 0.00 0.00 0.00 75 1019.1
20260502015309 10 138 0.0 0.0 0.00 0.00 0.00 75 1019.1
20260502014806 10 138 0.0 0.0 0.00 0.00 0.00 75 1019.1
20260502014306 10 138 0.0 0.0 0.00 0.00 0.00 74 1019.1
20260502014108 10 138 0.0 0.0 0.00 0.00 0.00 73 1019.1
20260502013307 10 138 0.0 0.0 0.00 0.00 0.00 73 1019.2
20260502012812 11 138 0.0 0.0 0.00 0.00 0.00 72 1019.2
20260502012259 11 138 0.0 0.0 0.00 0.00 0.00 72 1019.3
20260502011805 11 138 0.0 0.0 0.00 0.00 0.00 72 1019.3
20260502011259 11 138 0.0 0.0 0.00 0.00 0.00 71 1019.3
20260502010757 11 138 0.0 0.0 0.00 0.00 0.00 71 1019.4
20260502010258 11 138 0.0 0.0 0.00 0.00 0.00 70 1019.4
20260502005758 11 138 0.0 0.0 0.00 0.00 0.00 69 1019.5
20260502005259 11 138 0.0 0.0 0.00 0.00 0.00 69 1019.6
20260502004756 11 138 0.0 0.0 0.00 0.00 0.00 68 1019.6
20260502004255 12 138 0.0 0.0 0.00 0.00 0.00 67 1019.7
20260502003755 12 136 0.0 0.0 0.00 0.00 0.00 66 1019.6
20260502003258 12 136 0.0 0.0 0.00 0.00 0.00 66 1019.7
20260502002755 12 136 0.0 0.0 0.00 0.00 0.00 65 1019.7
20260502002406 12 136 0.0 0.0 0.00 0.00 0.00 65 1019.8
20260502002341 12 136 0.0 0.0 0.00 0.00 0.00 65 1019.8
20260502001255 12 136 0.0 0.0 0.00 0.00 0.00 64 1019.8
20260502000755 12 136 0.0 0.0 0.00 0.00 0.00 64 1019.9
20260502000256 12 136 0.0 0.0 0.00 0.00 0.00 64 1020.0
20260501235753 12 136 0.0 0.0 0.00 0.00 0.00 65 1020.0
20260501235252 12 136 0.0 0.0 0.00 0.00 0.00 64 1020.0
20260501234748 12 136 0.0 0.0 0.00 0.00 0.00 64 1020.1
20260501234250 13 136 0.0 0.0 0.00 0.00 0.00 64 1020.1
20260501233748 13 136 0.0 0.0 0.00 0.00 0.00 64 1020.1
20260501233246 13 136 0.0 0.0 0.00 0.00 0.00 63 1020.1
20260501232743 13 136 0.0 0.0 0.00 0.00 0.00 62 1020.2
20260501232546 13 136 0.0 0.0 0.00 0.00 0.00 62 1020.1
20260501231740 13 136 0.0 0.0 0.00 0.00 0.00 62 1020.2
20260501231236 13 136 0.0 0.0 0.00 0.00 0.00 61 1020.3
20260501230736 13 136 0.0 0.0 0.00 0.00 0.00 61 1020.3
20260501230235 14 136 0.0 0.0 0.00 0.00 0.00 60 1020.3
20260501225737 14 136 0.0 0.0 0.00 0.00 0.00 60 1020.2
20260501225534 14 136 0.0 0.0 0.00 0.00 0.00 59 1020.2
20260501224732 14 137 0.0 0.0 0.00 0.00 0.00 59 1020.2
20260501224231 14 155 0.0 0.0 0.00 0.00 0.00 59 1020.2
20260501223729 14 145 0.0 0.0 0.00 0.00 0.00 60 1020.2
20260501223550 13 139 0.0 0.0 0.00 0.00 0.00 61 1020.1
20260501222732 13 135 0.0 1.6 0.00 0.00 0.00 62 1020.2
20260501222225 13 135 0.0 1.6 0.00 0.00 0.00 63 1020.2
20260501221719 13 135 0.0 0.0 0.00 0.00 0.00 64 1020.3
20260501221512 13 135 0.0 0.0 0.00 0.00 0.00 65 1020.3
20260501220704 14 135 0.0 0.0 0.00 0.00 0.00 64 1020.3
20260501220458 14 135 0.0 0.0 0.00 0.00 0.00 63 1020.4
20260501215950 14 135 0.0 0.0 0.00 0.00 0.00 63 1020.4
20260501215200 14 135 0.0 0.0 0.00 0.00 0.00 62 1020.4
20260501214947 15 135 0.0 0.0 0.00 0.00 0.00 62 1020.4
20260501214154 15 135 0.0 0.0 0.00 0.00 0.00 61 1020.4
20260501213942 15 135 0.0 0.0 0.00 0.00 0.00 60 1020.4
20260501213149 15 135 0.0 0.0 0.00 0.00 0.00 59 1020.4
20260501212647 15 135 0.0 0.0 0.00 0.00 0.00 59 1020.3
20260501212145 15 135 0.0 0.0 0.00 0.00 0.00 58 1020.4
20260501211643 15 135 0.0 0.0 0.00 0.00 0.00 59 1020.4
20260501211141 15 135 0.0 0.0 0.00 0.00 0.00 60 1020.5
20260501210635 15 135 0.0 0.0 0.00 0.00 0.00 60 1020.6
20260501210135 16 135 0.0 0.0 0.00 0.00 0.00 59 1020.5
20260501205635 16 135 0.0 0.0 0.00 0.00 0.00 58 1020.6
20260501205432 16 135 0.0 0.0 0.00 0.00 0.00 57 1020.6
20260501204632 16 135 0.0 0.0 0.00 0.00 0.00 55 1020.7
20260501204434 16 135 0.0 0.0 0.00 0.00 0.00 55 1020.6
20260501203633 17 135 0.0 0.0 0.00 0.00 0.00 54 1020.7
20260501203132 17 135 0.0 0.0 0.00 0.00 0.00 52 1020.7
20260501202631 17 135 0.0 0.0 0.00 0.00 0.00 50 1020.7
20260501202132 17 135 0.0 0.0 0.00 0.00 0.00 48 1020.8
20260501201628 17 135 0.0 0.0 0.00 0.00 0.00 47 1020.7
20260501201121 18 135 0.0 0.0 0.00 0.00 0.00 47 1020.8
20260501200621 18 134 0.0 0.0 0.00 0.00 0.00 47 1020.8